Avalon, CA

1:12 AM PDT on May 24, 2017 (GMT -0700)
Catalina

Weather History for KAVX - September, 2013

Change the Weather History Date:

Wednesday, September 4, 2013

  Actual Average Record
Temperature  
Mean Temperature 82 °F -  
Max Temperature 90 °F 76 °F 98 °F (2010)
Min Temperature 77 °F 59 °F 55 °F (2000)
Cooling Degree Days 18    
Growing Degree Days 32 (Base 50)    
Moisture  
Dew Point 54 °F    
Average Humidity 38    
Maximum Humidity 48    
Minimum Humidity 31    
Precipitation  
Precipitation 0.00 in - - ()
Sea Level Pressure  
Sea Level Pressure 29.85 in    
Wind  
Wind Speed 6 mph (WNW)    
Max Wind Speed 13 mph    
Max Gust Speed -    
Visibility 10 miles    
Events      
Averages and records for this station are not official NWS values.
T = Trace of Precipitation, MM = Missing Value Source: NWS Daily Summary

Daily Weather History Graph

Daily Weather History Graph

Search for Another Location

Airport or City:

Trip Planner

Search our weather history database for the weather conditions in past years. The results will help you decide how hot, cold, wet, or windy it might be!

Date:

Astronomy

Sep. 04, 2013 Rise Set
Actual Time 6:30 AM PDT 7:14 PM PDT
Civil Twilight 6:04 AM PDT 7:39 PM PDT
Nautical Twilight 5:35 AM PDT 8:09 PM PDT
Astronomical Twilight 5:04 AM PDT 8:39 PM PDT
Moon 5:46 AM PDT (9/4) 6:38 PM PDT (9/4)
Length of Visible Light 13h 34m
Length of Day
12h 44m
Waning Crescent, 1% of the Moon is Illuminated
Sep 4
Waning Crescent
Sep 5
New
Sep 12
First Quarter
Sep 19
Full
Sep 26
Last Quarter

Hourly Weather History & Observations

Time (PDT) Temp. Heat Index Dew Point Humidity Pressure Visibility Wind Dir Wind Speed Gust Speed Precip Events Conditions
12:51 AM 77.0 °F - 55.9 °F 48% 29.86 in 10.0 mi WNW 5.8 mph - N/A   Clear
1:51 AM 80.1 °F 80.0 °F 54.0 °F 40% 29.84 in 10.0 mi WNW 4.6 mph - N/A   Clear
2:51 AM 80.1 °F 80.0 °F 54.0 °F 40% 29.84 in 10.0 mi WNW 5.8 mph - N/A   Clear
3:51 AM 78.1 °F - 55.0 °F 45% 29.84 in 10.0 mi NW 4.6 mph - N/A   Clear
4:51 AM 78.1 °F - 54.0 °F 43% 29.84 in 10.0 mi Calm Calm - N/A   Clear
5:51 AM 79.0 °F - 54.0 °F 42% 29.86 in 10.0 mi North 3.5 mph - N/A   Clear
6:51 AM 79.0 °F - 54.0 °F 42% 29.87 in 10.0 mi WNW 3.5 mph - N/A   Clear
7:51 AM 82.9 °F - 52.0 °F 34% 29.87 in 10.0 mi WNW 4.6 mph - N/A   Clear
8:51 AM 87.1 °F 84.9 °F 53.1 °F 31% 29.87 in 10.0 mi NE 4.6 mph - N/A   Clear
9:51 AM 86.0 °F 84.2 °F 54.0 °F 33% 29.88 in 10.0 mi NNW 3.5 mph - N/A   Clear
10:51 AM 88.0 °F 86.7 °F 57.0 °F 35% 29.88 in 10.0 mi Variable 3.5 mph - N/A   Clear
11:51 AM 88.0 °F 86.5 °F 55.9 °F 34% 29.88 in 10.0 mi West 3.5 mph - N/A   Clear
12:51 PM 88.0 °F 86.7 °F 57.0 °F 35% 29.86 in 10.0 mi WSW 8.1 mph - N/A   Clear
1:51 PM 87.1 °F 85.7 °F 55.9 °F 35% 29.86 in 10.0 mi WSW 6.9 mph - N/A   Clear
2:51 PM 87.1 °F 85.7 °F 55.9 °F 35% 29.84 in 10.0 mi WSW 8.1 mph - N/A   Clear
3:51 PM 82.9 °F 81.9 °F 54.0 °F 37% 29.84 in 10.0 mi WSW 10.4 mph - N/A   Clear
4:51 PM 81.0 °F 80.5 °F 54.0 °F 39% 29.83 in 10.0 mi WSW 12.7 mph - N/A   Clear
5:51 PM 81.0 °F - 52.0 °F 36% 29.83 in 10.0 mi WSW 11.5 mph - N/A   Clear
6:51 PM 80.1 °F - 52.0 °F 38% 29.83 in 10.0 mi WSW 10.4 mph - N/A   Clear
7:51 PM 78.1 °F - 51.1 °F 39% 29.83 in 10.0 mi WSW 10.4 mph - N/A   Clear
8:51 PM 79.0 °F - 51.1 °F 38% 29.83 in 10.0 mi WSW 10.4 mph - N/A   Clear
9:51 PM 80.1 °F - 50.0 °F 35% 29.85 in 10.0 mi WNW 6.9 mph - N/A   Clear
10:51 PM 81.0 °F - 51.1 °F 35% 29.84 in 10.0 mi WNW 9.2 mph - N/A   Clear
11:51 PM 78.1 °F - 52.0 °F 40% 29.85 in 10.0 mi NNW 5.8 mph - N/A   Clear